Regional Weather Roundup
Issued by NWS

Home | Current Version | Previous Version | Text Only | Print | Product List | Glossary On
Versions: 1 2 3 4 5 6 7 8 9 10 11 12 13 14 15 16 17 18 19 20 21 22 23 24 25 26 27 28 29 30 31
000
ASUS45 KGTF 190010
RWRMT
MONTANA HOURLY WEATHER ROUNDUP
NATIONAL WEATHER SERVICE GREAT FALLS MT
600 PM MDT SAT APR 18 2015

NOTE: "FAIR" INDICATES FEW OR NO CLOUDS BELOW 12000 FEET WITH NO
SIGNIFICANT WEATHER AND/OR OBSTRUCTIONS TO VISIBILITY.

MTZ001>007-043-190100-
WEST OF THE DIVIDE

CITY           SKY/WX    TMP DP  RH WIND       PRES   REMARKS
KALISPELL      CLEAR     61  21  21 SE5       30.12F
MISSOULA       SUNNY     64  23  21 N18G24    30.10F
BUTTE          PTSUNNY   49  27  42 SE8       30.15R
DEER LODGE       N/A     50  27  40 NE12      30.22S
EUREKA           N/A     64  16  15 CALM      30.13F
HAMILTON         N/A     64  19  17 W7        30.10S
LIBBY            N/A     66  10  11 NW9       30.13S
$$

MTZ008-052>055-190100-
SOUTHWEST MONTANA

CITY           SKY/WX    TMP DP  RH WIND       PRES   REMARKS
BOZEMAN        CLOUDY    49  28  44 NW12      30.17R
DILLON         SUNNY     54  27  35 NE32G38   30.07S
$$

MTZ009-010-012-014-046-048-049-054-190100-
EAST SLOPES AND CENTRAL MONTANA

CITY           SKY/WX    TMP DP  RH WIND       PRES   REMARKS
CUT BANK       CLOUDY    45  25  45 N14       30.27R
GREAT FALLS    CLOUDY    46  29  51 NW8       30.26F
MALMSTROM AFB  PTSUNNY   46  29  50 N9        30.27S
HELENA         SUNNY     49  28  44 N17       30.24S
$$

MTZ011-013-016-021-045-047-050-051-190100-
NORTH CENTRAL MONTANA

CITY           SKY/WX    TMP DP  RH WIND       PRES   REMARKS
HAVRE          CLOUDY    52  22  30 NW23G31   30.20S
LEWISTOWN      PTSUNNY   44  29  55 NW14G23   30.22S
FORT BENTON      N/A     52  23  32 NW16G22   30.25F
$$

MTZ017>020-022>042-056>058-061-062-190100-
EASTERN PLAINS

CITY           SKY/WX    TMP DP  RH WIND       PRES   REMARKS
BAKER          CLOUDY    56  36  47 N29G41    29.97R
BILLINGS       PTSUNNY   48  30  49 NE16G24   30.18R
GLASGOW        MOSUNNY   58  19  22 NW28G36   30.07S
JORDAN           N/A     56  23  27 NW25G37   30.09F
LIVINGSTON     CLOUDY    50  25  37 NW21      30.17R
MILES CITY     MOSUNNY   57  26  30 N31G46    30.04R
SIDNEY         CLOUDY    55  27  33 NW18G26   29.99R
WOLF POINT     PTSUNNY   59  27  29 NW18G26   30.04S
BIG TIMBER       N/A     46  28  49 N15G25    30.18R
FORSYTH          N/A     52  32  46 NW15G26   30.11R
PLENTYWOOD       N/A     54  27  35 NW26G33   29.99S
POPLAR           N/A     55  27  33 NW21G29   30.02S
$$

REGIONAL REPORTS...DAKOTAS

CITY           SKY/WX    TMP DP  RH WIND       PRES   REMARKS
WILLISTON      CLOUDY    56  28  34 NW23G32   29.96R
MINOT          LGT RAIN  58  38  47 NW24G31   29.87R
DICKINSON      RAIN      51  47  86 NW8       29.92R FOG
BEACH          CLOUDY    55  32  41 N25G33    29.98R
CROSBY         FAIR      55  28  35 NW23      29.96S
WATFORD CITY   MOCLDY    55  32  41 N21G28    29.93R
BISMARCK       CLOUDY    54  40  59 S8        29.92S
GRAND FORKS    CLOUDY    67  29  24 S3        29.89F
FARGO          CLOUDY    71  28  20 SE13      29.87F
BUFFALO SD       N/A     51  41  68 W7        29.87R
RAPID CITY     CLOUDY    46  44  93 NW10      29.91F
$$

REGIONAL REPORTS...WYOMING/IDAHO/WASHINGTON

CITY           SKY/WX    TMP DP  RH WIND       PRES   REMARKS
GILLETTE       CLOUDY    49  43  80 N10       29.97R
SHERIDAN       CLOUDY    50  34  54 NW31G43   30.08R
BUFFALO WY     CLOUDY    51  34  52 NW32G45   30.04R
CODY           CLOUDY    43  30  61 N16G32    30.14R
YELLOWSTONE LA   N/A     46  21  37 NW10G26   30.12R
IDAHO FALLS    SUNNY     67  15  13 N16G26    30.00S
SALMON         SUNNY     66  18  15 N17       30.04S
BOISE          SUNNY     72  23  16 NW24G30   30.03F
SPOKANE        MOSUNNY   68  15  13 NW9       30.17F
$$

REGIONAL REPORTS...ALBERTA

CITY           SKY/WX    TMP DP  RH WIND       PRES   REMARKS
EDMONTON       MOSUNNY   52  14  22 NW12G28   30.22S
CALGARY        MOSUNNY   54  10  17 N20       30.25S
LETHBRIDGE     MOSUNNY   50  23  34 W20       30.26F
MEDICINE HAT   MOSUNNY   52  18  25 NW21G32   30.22R
$$

REGIONAL REPORTS...SASKATCHEWAN

CITY           SKY/WX    TMP DP  RH WIND       PRES   REMARKS
SWIFT CURRENT  MOSUNNY   46  25  42 NW26G35   30.08R
REGINA         PTSUNNY   48  30  49 NW22G37   30.01R
SASKATOON      PTSUNNY   48  32  53 NW23G29   30.01S
$$



USA.gov is the U.S. government's official web portal to all federal, state and local government web resources and services.